DAX 14.231 1,6%  MDAX 29.430 1,1%  Dow 32.637 1,6%  Nasdaq 12.277 2,8%  Gold 1.855 0,2%  TecDAX 3.097 1,3%  EStoxx50 3.740 1,7%  Nikkei 26.779 0,7%  Dollar 1,0754 0,2%  Öl 117,5 -0,1% 


+++ 900% Gewinn: Aktien, die seit 10 Jahren immer steigen +++
-w-

Hauptversammlungs-Kalender NASDAQ 100 Unternehmen

Datum Name Kurs * Dividende Rendite *
15.06.22 T-Mobile US Inc - 0,00 0,00
14.06.22 Monster Beverage Corp - 0,00 0,00
10.06.22 Regeneron Pharmaceuticals Inc. - 0,00 0,00
09.06.22 Dr Pepper Snapple Group Inc - 0,68 0,00
08.06.22 eBay Inc. - 0,72 0,00
07.06.22 Cognizant Corp. - 0,96 0,00
02.06.22 Netflix Inc. - 0,00 0,00
01.06.22 Alphabet C (ex Google) - 0,00 0,00
01.06.22 Alphabet A (ex Google) - 0,00 0,00
01.06.22 Comcast Corp. (Class A) - 1,00 0,00
26.05.22 VeriSign Inc. - 0,00 0,00
25.05.22 Facebook Inc. - 0,00 0,00
25.05.22 Amazon - 0,00 0,00
19.05.22 DexCom Inc. 316,12 0,00 0,00
18.05.22 Mondelez 60,94 1,33 0,00
18.05.22 Vertex Pharmaceuticals Inc. 252,35 0,00 0,00
18.05.22 AMD (Advanced Micro Devices) Inc. 96,28 0,00 0,00
17.05.22 Amgen Inc. 245,35 7,04 0,00
12.05.22 Intel Corp. 42,84 1,39 0,00
12.05.22 O Reilly Automotive Inc 622,34 0,00 0,00
05.05.22 Cadence Design Systems Inc. 149,40 0,00 0,00
05.05.22 The Kraft Heinz Company 43,14 1,60 0,00
29.04.22 ASML Holding NV NY Registered Shs 563,77 5,50 0,00
28.04.22 Intuitive Surgical Inc 243,26 0,00 0,00
28.04.22 Texas Instruments Inc. (TI) 175,85 4,21 0,00
26.04.22 American Electric Power Co. Inc. 99,24 3,00 0,00
26.04.22 Exelon Corp. 48,42 1,53 0,00
26.04.22 Charter Inc (A) (Charter Communications) 486,95 0,00 0,00
04.04.22 Broadcom 634,85 14,40 0,00
16.03.22 Starbucks Corp. 87,41 1,80 0,00
10.03.22 Applied Materials Inc. 124,97 0,94 0,00
09.03.22 QUALCOMM Inc. 157,11 2,66 0,00
09.03.22 Analog Devices Inc. 153,62 2,69 0,00
04.03.22 Apple Inc. 163,17 0,85 0,00
27.01.22 Walgreens Boots Alliance Inc 50,00 1,88 0,00
20.01.22 Costco Wholesale Corp. 482,82 2,98 0,00
20.01.22 Intuit Inc. 544,62 2,36 0,00
13.01.22 Micron Technology Inc. 95,62 0,00 0,00
21.12.21 Ctrip.com International Ltd (spons. ADRs) 23,56 0,00 0,00
13.12.21 Cisco Inc. 58,61 1,46 0,00
30.11.21 Microsoft Corp. 330,59 2,24 0,00
10.11.21 Automatic Data Processing Inc. 229,64 3,70 0,00
10.11.21 Fox Corp (ex 21st Century Fox) 40,69 0,46 0,00
10.11.21 Fox Corp B 37,81 0,46 0,00
08.11.21 Lam Research Corp. 609,07 5,20 0,00
03.11.21 KLA-Tencor Corp. 393,67 3,60 0,00
26.10.21 Cintas Corp. 430,50 5,01 0,00
14.10.21 Paychex Inc. 118,75 2,52 0,00
07.10.21 Tesla 793,61 0,00 0,00
24.08.21 Microchip Technology Inc. 74,03 0,75 0,00
Seite: 1 | 2 | 3 | 4 | 5 | 6 | 7 | 8 | 9 | ... | 29 Weiter
* Kurs und Rendite vom jeweiligen Datum